Regional Weather Roundup
Issued by NWS Newport/Morehead, NC

Current Version | Previous Version | Graphics & Text | Print | Product List | Glossary On
Versions: 1 2 3 4 5 6 7 8 9 10 11 12 13 14 15 16 17 18 19 20 21 22 23 24 25 26 27 28 29 30 31 32 33 34 35 36 37 38 39 40 41 42 43 44 45 46 47 48 49 50
000 ASUS42 KMHX 230125 RWRMHX WEATHER ROUNDUP FOR EASTERN NORTH CAROLINA NATIONAL WEATHER SERVICE NEWPORT/MOREHEAD CITY NC 900 PM EDT WED MAR 22 2017 NOTE: "FAIR" INDICATES FEW OR NO CLOUDS BELOW 12,000 FEET WITH NO SIGNIFICANT WEATHER AND/OR OBSTRUCTIONS TO VISIBILITY NCZ015>017-031-032-045>047-102-103-230200- NORTH COAST CITY SKY/WX TMP DP RH WIND PRES REMARKS EDENTON CLEAR 44 27 51 CALM 30.37R ELIZABETH CITY CLEAR 42 25 50 N8 30.36R KITTY HAWK NOT AVBL MANTEO CLEAR 43 24 47 NE15G23 30.37R $$ NCZ045>047-081-094-103-104-230200- CENTRAL COAST CITY SKY/WX TMP DP RH WIND PRES REMARKS FRISCO CLEAR 44 28 53 NE10G17 30.35R $$ NCZ095-097-098-100-101-230200- SOUTHERN COAST CITY SKY/WX TMP DP RH WIND PRES REMARKS BEAUFORT CLEAR 46 27 47 NE12G22 30.33R CEDAR ISLAND NOT AVBL JACKSONVILLE CLEAR 48 33 56 E14 30.32R PINEY ISLAND CLEAR N/A N/A N/A NE21G29 30.34R WILMINGTON CLOUDY 51 38 60 E13 30.30R $$ NCZ011>013-027>030-043-044-078>080-089-090>093-098-230200- COASTAL PLAIN CITY SKY/WX TMP DP RH WIND PRES REMARKS AHOSKIE NOT AVBL CLINTON CLEAR 51 23 33 NE6 30.33R ELIZABETHTOWN CLEAR 53 26 34 NE3 30.31R GOLDSBORO CLEAR 48 18 30 NE8 30.32R GREENVILLE CLEAR 46 19 34 NE8 30.36R HAVELOCK CLEAR 47 29 49 E18G24 30.33R KENANSVILLE CLEAR 46 21 36 NE3 30.33R KINSTON CLEAR 48 19 32 N6 30.34R NEW BERN CLEAR 45 30 55 NE8 30.35R RICHLANDS CLEAR 46 26 45 NE7 30.32R ROCKY MOUNT CLEAR 45 17 32 NE8 30.35R WASHINGTON CLEAR 43 22 43 NE6 30.36R WHITEVILLE CLOUDY 57 26 30 NE7G18 30.29R $$ AMZ130-135-150-152-154-156-158-170-250-252-270-ANZ085-086-088-633-658-670-230200- MARINE OBSERVATIONS STATION/POSITION TIME TEMP WIND PRES WAVE SWELL AIR SEA DIR/SP/G HT/PER HT/PER (UTC) (F) (DEG/KT/KT) (MB) (FT/S) (FT/S) CHESAPEAKE LIGHT NOT AVBL 64 E VA BEACH 0050 43 48 10/ 21/ 25 1027.0 8/ 8 DUCK 0100 45 48 20/ 18/ 22 1027.3 2 E DUCK 0100 47 N/A 6/ 6 2/12 OREGON INLET 0100 44 52 20/ 13/ 20 1027.7 13E OREGON INLT NOT AVBL HATTERAS CG 0100 45 55 40/ 12/ 17 1027.5 DIAMOND BUOY 0050 47 75 20/ 23/ 29 1026.9 11/11 CAPE LOOKOUT 0000 49 40/ 26/ 30 1025.2 BEAUFORT LAB 0100 46 53 40/ 11/ 18 1026.3 30 SE NEW RVR IN 0108 52 60/ 23/ 31 1026.2 30 SE NEW RVR IN 0043 64 N/A 9/ 7 2/11 27 SE WRIGHTSVLE 0108 54 63 90/ 21/ 31 1025.0 5 SE WRIGHTSVLE 0108 53 57 80/ 17/ 29 1026.2 225 S CAPE HAT 2350 65 75 20/ 29/ 33 1019.0 8/ 8 5/ 8 41 SE CHARLESTON 2350 64 66 60/ 17/ 21 1021.0 6/ 6 2/11 $$

USA.gov is the U.S. government's official web portal to all federal, state and local government web resources and services.